Location: Unspecified
(0.0000°N, 0.0000°E)
Time: 15:39:26
(UTC+00:00)

FENGYUN 1C DEB - Pass Details

Date: 16 February 2026
Orbit: 775 x 802 km, 98.9° (Epoch: 9 April)

Event Time Altitude Azimuth Distance (km) Brightness Sun altitude
Rises 03:35:40 0° 145° (SE) 3,199 ? -38.5°
Reaches altitude 10° 03:38:18 10° 132° (SE) 2,276 ? -37.9°
Enters shadow 03:41:54 25° 86° (E) 1,487 ? -37.0°
